McConnell AFB, KS

11:17 PM CST on December 09, 2019 (GMT -0600)
McConnell Air Force Base

Weather History for KIAB - September, 2019

Change the Weather History Date:

Tuesday, September 17, 2019

  Actual Average Record
Temperature  
Mean Temperature 80 °F -  
Max Temperature 91 °F 79 °F 96 °F (2014)
Min Temperature 71 °F 58 °F 52 °F (2008)
Cooling Degree Days 16    
Growing Degree Days 30 (Base 50)    
Moisture  
Dew Point 64 °F    
Average Humidity 60    
Maximum Humidity 79    
Minimum Humidity 37    
Precipitation  
Precipitation 0.00 in - - ()
Sea Level Pressure  
Sea Level Pressure 29.96 in    
Wind  
Wind Speed 11 mph (SE)    
Max Wind Speed 22 mph    
Max Gust Speed 26 mph    
Visibility 10 miles    
Events      
Averages and records for this station are not official NWS values.
T = Trace of Precipitation, MM = Missing Value Source: NWS Daily Summary

Daily Weather History Graph

Daily Weather History Graph

Search for Another Location

Airport or City:

Astronomy

Sep. 17, 2019 Rise Set
Actual Time 7:12 AM CDT 7:34 PM CDT
Civil Twilight 6:46 AM CDT 8:00 PM CDT
Nautical Twilight 6:15 AM CDT 8:30 PM CDT
Astronomical Twilight 5:44 AM CDT 9:02 PM CDT
Moon 9:41 PM CDT (9/17) 10:15 AM CDT (9/17)
Length of Visible Light 13h 13m
Length of Day
12h 21m
Waning Gibbous, 89% of the Moon is Illuminated
Sep 17
Waning Gibbous
Sep 21
Last Quarter
Sep 28
New
Oct 5
First Quarter
Oct 13
Full

Hourly Weather History & Observations

Time (CDT) Temp. Heat Index Dew Point Humidity Pressure Visibility Wind Dir Wind Speed Gust Speed Precip Events Conditions
12:56 AM 74.8 °F - 66.0 °F 74% 29.99 in 10.0 mi ESE 9.2 mph - N/A   Clear
1:56 AM 74.1 °F - 65.3 °F 74% 29.99 in 10.0 mi ESE 9.2 mph - N/A   Clear
2:56 AM 73.2 °F - 64.8 °F 75% 29.99 in 10.0 mi ESE 6.9 mph - N/A   Clear
3:56 AM 73.2 °F - 64.4 °F 74% 29.98 in 10.0 mi ESE 8.1 mph - N/A   Clear
4:56 AM 72.3 °F - 64.2 °F 76% 29.98 in 10.0 mi ESE 8.1 mph - N/A   Clear
5:56 AM 71.4 °F - 64.2 °F 78% 29.98 in 10.0 mi ESE 6.9 mph - N/A   Clear
7:56 AM 71.8 °F - 64.9 °F 79% 30.01 in 10.0 mi ESE 6.9 mph - N/A   Clear
8:56 AM 76.1 °F - 65.1 °F 69% 30.01 in 10.0 mi SE 10.4 mph - N/A   Clear
9:56 AM 81.3 °F 83.0 °F 64.6 °F 57% 30.01 in 10.0 mi SE 17.3 mph - N/A   Clear
10:56 AM 82.2 °F 84.0 °F 64.9 °F 56% 30.01 in 10.0 mi SE 13.8 mph - N/A   Clear
11:56 AM 86.9 °F 88.6 °F 64.8 °F 48% 30.00 in 10.0 mi SSE 16.1 mph - N/A   Clear
12:56 PM 87.6 °F 89.1 °F 64.2 °F 46% 29.98 in 10.0 mi SE 21.9 mph - N/A   Clear
1:56 PM 89.2 °F 89.9 °F 62.4 °F 41% 29.96 in 10.0 mi SE 17.3 mph 25.3 mph N/A   Clear
2:56 PM 90.3 °F 90.5 °F 61.2 °F 38% 29.95 in 10.0 mi SE 18.4 mph - N/A   Partly Cloudy
3:56 PM 90.1 °F 89.9 °F 61.0 °F 37% 29.93 in 10.0 mi SE 18.4 mph 26.5 mph N/A   Clear
4:56 PM 90.0 °F 90.6 °F 62.4 °F 40% 29.92 in 10.0 mi SE 20.7 mph - N/A   Clear
5:56 PM 88.7 °F 89.1 °F 61.9 °F 41% 29.90 in 10.0 mi ESE 21.9 mph 26.5 mph N/A   Clear
6:56 PM 85.3 °F 87.1 °F 65.1 °F 51% 29.89 in 10.0 mi ESE 12.7 mph - N/A   Clear
7:56 PM 81.5 °F 83.1 °F 64.2 °F 56% 29.89 in 10.0 mi ESE 11.5 mph - N/A   Clear
8:56 PM 78.6 °F - 64.9 °F 63% 29.91 in 10.0 mi ESE 9.2 mph - N/A   Clear
10:56 PM 75.6 °F - 65.1 °F 70% 29.92 in 10.0 mi ESE 9.2 mph - N/A   Clear
11:56 PM 75.0 °F - 65.3 °F 72% 29.92 in 10.0 mi ESE 11.5 mph - N/A   Clear